Flag for Argentina Weather past 2 weeks in Zárate, Buenos Aires, Argentina

Now
57 °F

Sunny.


Feels Like: 55 °F
Forecast: N/A
Wind: 10 mph from Southeast

Location: Buenos Aires Airport

Current Time: Aug 1, 2015 at 6:04:00 PM

Latest Report: Aug 1, 2015 at 5:00 PM


Visibility: 10 mi

Pressure: 29.89 "Hg

Humidity: 82%

Dew point: 52 °F

Location of ZárateLocation

Historic Weather in Zárate — Graph

°F

Zárate temperature yesterday

Maximum temperature yesterday: 66 °F (at 7:00 AM)
Minimum temperature yesterday: 59 °F (at 11:00 AM)
Average temperature yesterday: 63 °F

Past Weeks' High & Low Weather Summary

 TemperatureHumidityPressure
High72 °F (Jul 28, 4:00 PM)100% (Jul 30, 3:00 PM)30.33 "Hg (Jul 30, 3:00 PM)
Low43 °F (Jul 21, 4:00 AM)31% (Jul 19, 6:00 PM)29.65 "Hg (Jul 31, 5:00 AM)
Average57 °F77%30.08 "Hg
* Reported Jul 17 5:00 PM — Aug 1 5:00 PM, Zárate, Weather by CustomWeather, © 2015

Note: Actual official high and low records may vary slightly from our data, if they occured in-between our weather recording intervals... More about our weather records

Advertising

Zárate weather history for previous 24 hours

 ConditionsComfort  
Time TempWeatherWind HumidityBarometerVisibility
5:00 PM
Sat, Aug 1
57 °FSunny.10 mph82%29.89 "Hg10 mi
4:00 PM59 °FSunny.14 mph72%29.89 "Hg10 mi
3:00 PM59 °FSunny.8 mph68%29.92 "Hg10 mi
2:00 PM59 °FSunny.6 mph63%29.98 "Hg10 mi
1:00 PM59 °FSunny.12 mph63%30.01 "Hg10 mi
12:00 PM57 °FSunny.10 mph63%30.04 "Hg10 mi
11:00 AM57 °FSunny.7 mph72%30.04 "Hg10 mi
10:00 AM55 °FSunny.10 mph77%30.07 "Hg10 mi
9:00 AM55 °FSunny.9 mph82%30.07 "Hg10 mi
8:00 AM54 °FSunny.10 mph88%30.07 "Hg10 mi
7:00 AM52 °FSunny.5 mph82%30.09 "Hg10 mi
6:00 AM50 °FClear.7 mph88%30.07 "Hg10 mi
5:00 AM50 °FClear.3 mph76%30.07 "Hg10 mi
4:00 AM54 °FClear.2 mph72%30.09 "Hg10 mi
3:00 AM55 °FClear.2 mph63%30.09 "Hg10 mi
1:00 AM57 °FClear.8 mph59%30.07 "Hg10 mi
12:00 AM57 °FClear.8 mph59%30.07 "Hg10 mi
11:00 PM
Fri, Jul 31
59 °FClear.7 mph68%30.04 "Hg10 mi
10:00 PM59 °FClear.8 mph68%30.04 "Hg10 mi
9:00 PM61 °FClear.9 mph68%30.01 "Hg10 mi
8:00 PM63 °FClear.12 mph68%29.98 "Hg10 mi
7:00 PM63 °FClear.16 mph73%29.92 "Hg10 mi
6:00 PM64 °FPassing clouds.12 mph73%29.89 "HgN/A
Weather by CustomWeather, © 2015

See weather overviewHow to use our weather pages